Cloud_Cover
0 5 5 5 10 5 4 5 1 5 4 5 59 98 100 100 80 100 100 100 100 100 100 100 100 100 100 100 100 100 91 81 100 86 76 75 84 91 29 5 5 5 5 0
5 62 4 0 0 2 100 100 18 49 99 46 42 100 100 100 100 100 100 99 83 88 75 99 93 100 100 100 73 17 3 49 12 5 57 89 77 12 5 5 5 1 0 0
7 0 3 0 4 60 100 55 92 95 100 100 96 94 100 100 100 97 44 27 62 22 44 95 100 63 100 69 14 0 3 5 8 85 99 88 84 77 51 5 2 0 0 0
43 90 2 1 5 77 78 58 92 92 59 89 99 100 100 8 5 6 8 7 48 100 100 20 34 96 9 0 0 1 5 66 100 96 80 52 7 5 1 0 0 0 0 0
0 82 100 100 10 5 5 43 5 15 18 6 5 1 5 5 4 3 14 94 56 72 26 74 25 3 0 0 0 6 97 99 73 92 47 5 5 0 0 0 0 0 0 0
0 0 22 74 100 100 87 65 61 40 26 5 5 1 0 2 5 91 85 71 94 55 75 10 1 4 0 2 7 99 100 96 74 5 5 5 1 3 0 0 0 0 0 0
0 0 0 0 0 0 2 1 1 0 0 0 0 4 5 80 39 43 32 27 87 100 43 2 1 0 1 6 95 100 91 57 5 5 2 4 0 0 0 0 0 0 0 0
5 0 0 0 0 0 0 0 0 0 0 1 5 5 3 0 3 35 34 55 54 5 0 0 0 3 5 92 100 84 55 5 5 3 0 0 0 0 0 0 0 0 0 0
37 0 0 0 0 0 0 0 0 0 0 0 3 33 0 4 5 44 5 5 4 0 0 0 5 11 100 98 99 95 99 89 7 0 0 0 0 0 0 0 0 0 0 0
95 5 0 0 2 0 0 0 0 72 72 13 0 0 1 1 3 5 5 1 0 0 0 3 7 100 100 100 80 80 98 43 0 0 0 0 0 0 0 0 0 0 0 0
100 70 5 5 0 0 0 0 0 0 2 7 1 0 0 0 4 5 4 4 5 5 4 5 47 100 100 100 100 86 70 5 0 0 0 0 0 0 0 0 0 0 0 0
100 100 31 5 5 4 0 0 2 5 5 0 0 0 0 2 3 0 5 5 5 5 5 5 65 100 100 100 97 93 5 0 0 0 0 0 0 0 0 0 0 0 0 0
80 100 53 5 5 1 0 0 0 0 0 0 0 0 0 0 0 0 5 5 5 6 37 84 100 100 100 100 86 46 4 0 0 0 0 0 0 0 0 0 0 0 0 0
6 92 75 5 25 5 5 5 5 3 5 4 0 0 0 0 2 5 5 16 75 98 52 100 100 100 100 72 79 2 0 0 0 0 0 0 0 0 0 0 0 0 0 0
5 5 5 5 5 5 5 5 5 5 5 5 5 1 0 0 3 25 47 82 67 8 94 100 100 100 100 80 1 0 0 0 0 0 0 0 0 0 0 0 0 0 0 0
3 5 22 68 5 6 5 82 50 76 83 5 5 5 0 0 7 44 57 5 9 98 100 100 100 100 5 1 0 0 0 0 0 0 0 0 0 0 0 0 0 0 1 1
5 5 5 20 8 6 6 76 91 100 100 13 5 5 0 0 5 5 5 13 99 92 44 54 16 5 0 0 0 0 0 0 0 0 0 0 0 0 0 0 0 0 1 5
5 5 5 55 26 60 14 44 100 100 100 100 11 4 0 3 1 5 10 100 100 13 5 5 4 0 0 0 0 0 0 0 0 0 0 0 0 0 0 0 0 0 0 2
5 5 5 14 36 83 100 100 94 50 99 100 17 0 0 0 5 8 4 11 17 5 4 0 0 0 0 0 0 0 0 0 0 0 0 0 0 0 0 0 0 0 1 5
5 5 5 5 5 72 99 94 72 46 83 5 5 3 5 5 7 3 3 3 4 5 0 0 0 0 0 0 0 0 0 0 0 0 0 0 0 0 0 0 0 0 5 5
70 14 8 5 5 5 37 83 45 62 45 5 5 5 5 5 0 1 0 1 0 0 0 0 0 0 0 0 0 0 0 0 0 0 0 0 0 0 0 0 0 5 5 45
5 5 9 5 5 5 92 93 73 34 18 5 5 5 5 3 2 0 0 0 0 0 0 0 0 0 0 0 0 0 0 0 0 0 0 0 0 0 0 0 4 5 5 90
5 17 5 5 5 6 32 56 79 75 5 5 5 5 5 2 0 0 0 0 0 0 0 0 0 0 0 0 0 0 0 0 0 0 0 0 0 0 0 4 5 5 5 94
43 7 5 7 11 27 59 100 90 45 5 5 5 4 0 0 0 0 0 0 0 0 0 0 0 0 0 0 0 0 0 4 2 0 0 0 0 0 0 1 5 5 16 89
5 5 40 29 64 72 50 42 34 5 5 5 5 5 0 0 0 0 0 0 0 0 0 0 0 0 1 0 0 0 0 0 0 0 0 0 1 5 3 3 5 5 69 98
5 23 48 55 99 47 12 76 5 5 5 5 5 2 5 5 0 0 0 0 0 0 0 0 0 0 0 0 0 0 0 0 0 0 0 5 5 5 5 5 5 5 15 82